星链-33962 (STARLINK-33962)

导读

STARLINK-33962是美国SpaceX星链互联网卫星星座的一员,于2025年5月13日成功发射,归入近地轨道部署。星链项目旨在构建全球覆盖的低轨卫星互联网,为偏远地区、海运航空等场景提供高速网络服务,该卫星进一步扩充了星链星座的规模,提升星座覆盖密度与服务能力,助力全球卫星互联网组网建设。

基本信息
目录编号:
63950
目录名称:
STARLINK-33962
国际标识:
2025-098AA
轨道中心:
EARTH
卫星名称:
星链-33962
卫星全名:
星链-33962 (STARLINK-33962)
卫星状态:
在轨 (已飞行397 天)
发射日期:
2025-05-13 UTC
国别 :
美国 (US)
星等 :
--
轨道信息
数据来源 国际轨道数据
星历时间: 2026-06-14T05:09:19+0800
7小时前
查看轨道信息
半长轴: 6950.204km
偏心率: 0.0001761
轨道倾角: 70.005°
近地点辐角 272.575°
升交点赤经 31.817°
平近点角 87.521°
近地点: 570.843km
远地点: 573.291km
周期: 96.107分钟
每日圈数: 14.983267
详细信息
固有亮度:
5
最大亮度:
2.5
卫星平台:
Starlink V1.0
覆盖范围:
全球
运营商:
太空探索技术公司
运营商所在国:
美国
制造商(研发单位):
太空探索技术公司
制造商所在国:
美国
使用方式:
暂无
卫星简介
Starlink 计划是 SpaceX 推出的全球卫星互联网项目,通过发射低轨道卫星,为全球尤其是偏远地区提供高速、低延迟的互联网服务。自 2019 年起,Starlink 已部署数千颗卫星,旨在缩小全球数字鸿沟,推动互联网普及。该项目还为军事、航空等行业提供通信支持,带来广泛经济效益。
2D轨道图
3D轨道图
轨道高度分析图
轨道倾角分析图
轨道综合分析图
查看轨道综合分析图